Find Kuiper-00259

NORAD ID: 67786 Int'l Des: 2026-030 Owner: KUIP Country: US Constellation: kuiper operational
LEOCIRCULAR

リアルタイム位置

3D地球を読み込み中...

Kuiper-00259について

説明を読み込み中...

次回通過

Passes for default location (London). Set your location on the main map for personalized predictions.

高度履歴

Loading altitude history...

軌道要素

1 67786U 26030Y 26121.91668981 .00013825 00000-0 78875-3 0 9992
2 67786 51.8938 323.7437 0009110 228.5304 166.3525 15.12979467 4995
Epoch: May 1, 2026 • Age: 8 hours

現在のステータス

高度 535.7 km
速度 7.60 km/s
衛星直下点 48.53°N, 126.28°E
打ち上げ日 Feb 12, 2026
運用期間 0.2 years
タイプ internet

技術仕様

分類 Payload
質量 490.00 kg
乾燥質量 490.00 kg
総質量 490.00 kg
長さ 1.80 m
直径 0.70 m
スパン 5.00 m
形状 Box + 2 pan
製造者 KUIP
バスタイプ Kuiper
フェーズステータス In Orbit
所有者/国 KUIP/US

Most Searched